Hourly Data Report for December 16, 2006

TORONTO CITY
ONTARIO

43°40'00.000" N
79°24'00.000" W
112.50 m
6158355
71508
XTO

Download Data

Hourly Data (December 2006)
Hourly Data Report for December 16, 2006
TIME
LST
Temp Definition
°C
Dew Point Definition
°C
Rel Hum Definition
%
Precip. Amount Definition
mm

Wind Dir Definition
10's deg

Wind Spd Definition
km/h
Visibility Definition
km
Stn Press Definition
kPa
Hmdx Definition


Wind Chill Definition


Weather Definition


00:00 4.2 -0.1 74   LegendMM LegendMM   99.89     LegendNANA
01:00 3.7 -0.6 73   LegendMM LegendMM   99.97     LegendNANA
02:00 4.4 -1.5 65   LegendMM LegendMM   100.09     LegendNANA
03:00 4.3 0.3 75   LegendMM LegendMM   100.25     LegendNANA
04:00 4.1 0.5 77   LegendMM LegendMM   100.27     LegendNANA
05:00 4.0 0.7 79   LegendMM LegendMM   100.34     LegendNANA
06:00 4.0 -0.2 74   LegendMM LegendMM   100.43     LegendNANA
07:00 3.9 -1.4 68   LegendMM LegendMM   100.49     LegendNANA
08:00 4.0 -1.4 68   LegendMM LegendMM   100.59     LegendNANA
09:00 4.4 -1.6 65   LegendMM LegendMM   100.72     LegendNANA
10:00 4.5 -2.4 61   LegendMM LegendMM   100.77     LegendNANA
11:00 4.6 -2.8 59   LegendMM LegendMM   100.73     LegendNANA
12:00 5.1 -3.0 56   LegendMM LegendMM   100.69     LegendNANA
13:00 6.0 -2.2 56   LegendMM LegendMM   100.66     LegendNANA
14:00 5.2 -2.4 58   LegendMM LegendMM   100.61     LegendNANA
15:00 4.7 -1.7 63   LegendMM LegendMM   100.60     LegendNANA
16:00 5.0 -2.1 60   LegendMM LegendMM   100.58     LegendNANA
17:00 5.1 -1.3 63   LegendMM LegendMM   100.59     LegendNANA
18:00 4.8 -0.3 70   LegendMM LegendMM   100.55     LegendNANA
19:00 4.9 0.2 72   LegendMM LegendMM   100.54     LegendNANA
20:00 4.7 0.2 73   LegendMM LegendMM   100.42     LegendNANA
21:00 4.6 0.3 74   LegendMM LegendMM   100.36     LegendNANA
22:00 4.8 1.3 78   LegendMM LegendMM   100.28     LegendNANA
23:00 5.6 1.0 72   LegendMM LegendMM   100.23     LegendNANA

Notes on Data Quality.

Legend

  • E = Estimated
  • M = Missing
  • NA = Not Available*
  • [empty] = Indicates an unobserved value
Date modified: